Location: Madden
(51.3728°N, 114.3297°W)
Time: 23:44:56
(UTC+00:00)

SEEDS - Pass Details

Date: 23 April 2025
Orbit: 510 x 513 km, 97.7° (Epoch: 16 May)

Event Time Altitude Azimuth Distance (km) Brightness Sun altitude
Rises 11:10:11 0° 26° (NNE) 2,649 ? -10.9°
Reaches altitude 10° 11:12:45 10° 44° (NE) 1,755 ? -10.6°
Maximum altitude 11:15:34 20° 92° (E) 1,258 ? -10.2°
Drops below altitude 10° 11:18:21 10° 140° (SE) 1,743 ? -9.9°
Sets 11:20:53 0° 158° (SSE) 2,624 ? -9.6°
